CPA876 CYHZ-EGPF

Flight info

Callsign CPA876
Flight time N/A
Altitude 38000
Route OMVEV Q951 DANOL T739 PRENT T295 PQI V39 GRINS L729 KISUV N907B TABRU L602 BRUCE
Aircraft A346/H-SDE1E2E3FGHIJ2J3J4J5M1RWXYZ/LB1D1

Departure

Time 2025-12-31 18:26
Airport Halifax / Stanfield International Airport (CYHZ)

Arrival

Time N/A
Airport Glasgow Airport (EGPF)
Time Latitude Longitude Altitude Speed Heading
2025-12-31 18:06 44.88601 -63.51347 456 ft 0 kts 301°
2025-12-31 18:10 44.88598 -63.51339 456 ft 2 kts 301°
2025-12-31 18:11 44.88597 -63.51336 456 ft 0 kts 301°
2025-12-31 18:15 44.88595 -63.51332 456 ft 2 kts 301°
2025-12-31 18:15 44.88587 -63.51314 456 ft 2 kts 301°
2025-12-31 18:16 44.88571 -63.51278 456 ft 2 kts 302°
2025-12-31 18:17 44.88537 -63.51243 456 ft 2 kts 347°
2025-12-31 18:17 44.88514 -63.51241 456 ft 1 kts
2025-12-31 18:19 44.88556 -63.51237 456 ft 6 kts 358°
2025-12-31 18:19 44.88674 -63.51214 456 ft 9 kts 62°
2025-12-31 18:20 44.88703 -63.51017 456 ft 12 kts 68°
2025-12-31 18:21 44.88608 -63.50735 462 ft 8 kts 182°
2025-12-31 18:21 44.88537 -63.50781 464 ft 0 kts 213°
2025-12-31 18:23 44.88536 -63.50782 464 ft 0 kts 213°
2025-12-31 18:24 44.88450 -63.50863 464 ft 34 kts 213°
2025-12-31 18:25 44.86367 -63.52916 788 ft 171 kts 216°
2025-12-31 18:25 44.84549 -63.54940 2225 ft 165 kts 239°
2025-12-31 18:26 44.84631 -63.58100 3505 ft 183 kts 295°
2025-12-31 18:26 44.87158 -63.59580 4422 ft 236 kts
2025-12-31 18:26 44.88820 -63.58977 4813 ft 254 kts
2025-12-31 18:27 44.91625 -63.60925 6314 ft 229 kts 299°
2025-12-31 18:27 44.93671 -63.64469 7971 ft 239 kts 303°
2025-12-31 18:28 44.96137 -63.67904 9239 ft 263 kts 308°
2025-12-31 18:29 45.00474 -63.73152 11161 ft 293 kts 311°
2025-12-31 18:29 45.03692 -63.76873 12517 ft 307 kts 311°
2025-12-31 18:30 45.07066 -63.80730 13740 ft 324 kts 310°
2025-12-31 18:30 45.10720 -63.84917 14753 ft 347 kts 311°
2025-12-31 18:30 45.12602 -63.87041 15458 ft 350 kts 311°
2025-12-31 18:31 45.16439 -63.91390 16866 ft 359 kts 311°
2025-12-31 18:31 45.20380 -63.95884 18258 ft 368 kts 311°
2025-12-31 18:32 45.24391 -64.00475 19566 ft 378 kts 311°
2025-12-31 18:33 45.30615 -64.07616 21510 ft 389 kts 310°
2025-12-31 18:33 45.34867 -64.12512 22745 ft 397 kts 310°
2025-12-31 18:34 45.39165 -64.17474 23858 ft 405 kts 310°
2025-12-31 18:34 45.41375 -64.20029 24434 ft 409 kts 310°
2025-12-31 18:34 45.45787 -64.25137 25529 ft 414 kts 310°
2025-12-31 18:37 45.66942 -64.49786 29380 ft 455 kts 310°
2025-12-31 18:38 45.84427 -64.70367 31884 ft 475 kts 310°
2025-12-31 18:41 46.07601 -64.97887 34576 ft 480 kts 311°
2025-12-31 18:42 46.25584 -65.19364 36262 ft 478 kts 311°
2025-12-31 18:45 46.48533 -65.47158 37638 ft 481 kts 311°
2025-12-31 18:46 46.70106 -65.61982 37667 ft 528 kts 347°
2025-12-31 18:49 47.02969 -65.67562 37665 ft 527 kts 346°
2025-12-31 18:50 47.28384 -65.72050 37631 ft 527 kts 346°
2025-12-31 18:53 47.60909 -65.77871 37609 ft 522 kts 347°
2025-12-31 18:54 47.86081 -65.82420 37610 ft 519 kts 347°
2025-12-31 18:57 48.18241 -65.88295 37580 ft 517 kts 347°
2025-12-31 18:58 48.43236 -65.92911 37539 ft 518 kts 348°
2025-12-31 19:01 48.75349 -65.98920 37416 ft 518 kts 348°
2025-12-31 19:02 49.00353 -66.03653 37272 ft 518 kts 348°
2025-12-31 19:05 49.32487 -66.09784 37547 ft 517 kts 349°
2025-12-31 19:07 49.60959 -66.15299 37530 ft 516 kts 349°
2025-12-31 19:09 49.89448 -66.20883 37513 ft 516 kts 349°
2025-12-31 19:10 50.14352 -66.25417 37446 ft 520 kts
2025-12-31 19:13 50.37684 -65.93437 37460 ft 522 kts 58°
2025-12-31 19:14 50.51503 -65.60126 37399 ft 522 kts 58°
2025-12-31 19:17 50.69177 -65.17030 37404 ft 522 kts 59°
2025-12-31 19:18 50.82834 -64.83263 37312 ft 520 kts 59°
2025-12-31 19:21 51.00225 -64.39635 37323 ft 522 kts 59°
2025-12-31 19:22 51.13655 -64.05440 37312 ft 522 kts 60°
2025-12-31 19:25 51.30766 -63.61303 37299 ft 520 kts 60°
2025-12-31 19:26 51.43920 -63.26744 37308 ft 521 kts 62°
2025-12-31 19:28 51.57002 -62.91883 37315 ft 521 kts 62°
2025-12-31 19:31 51.75475 -62.41896 37326 ft 521 kts 62°
2025-12-31 19:32 51.86430 -62.11718 37369 ft 521 kts 63°
2025-12-31 19:34 52.02737 -61.66213 37424 ft 520 kts 63°
2025-12-31 19:37 52.18927 -61.20344 37411 ft 520 kts 64°
2025-12-31 19:39 52.33084 -60.79402 37423 ft 520 kts 64°
2025-12-31 19:41 52.47109 -60.38182 37463 ft 520 kts 65°
2025-12-31 19:43 52.60992 -59.96625 37474 ft 519 kts 66°
2025-12-31 19:45 52.74766 -59.54748 37486 ft 522 kts 66°
2025-12-31 19:46 52.86685 -59.17894 37469 ft 521 kts 67°
2025-12-31 19:49 53.01861 -58.70171 37496 ft 523 kts 68°
2025-12-31 19:50 53.13554 -58.32865 37534 ft 522 kts 68°
2025-12-31 19:53 53.28455 -57.84415 37565 ft 523 kts 69°
2025-12-31 19:55 53.41472 -57.41220 37605 ft 520 kts 69°
2025-12-31 19:56 53.52685 -57.03306 37626 ft 520 kts 70°
2025-12-31 19:58 53.65358 -56.59769 37636 ft 519 kts 71°
2025-12-31 20:01 53.79374 -56.10640 37657 ft 517 kts 72°
2025-12-31 20:02 53.90099 -55.72347 37683 ft 515 kts 72°
2025-12-31 20:05 54.03624 -55.23121 37684 ft 512 kts 73°
2025-12-31 20:07 54.15505 -54.79179 37696 ft 511 kts 73°
2025-12-31 20:09 54.27184 -54.35037 37744 ft 511 kts 73°
2025-12-31 20:10 54.37184 -53.96447 37753 ft 505 kts 74°
2025-12-31 20:13 54.49771 -53.46947 37766 ft 504 kts 74°
2025-12-31 20:14 54.59360 -53.08458 37823 ft 499 kts 75°
2025-12-31 20:17 54.71467 -52.58926 37827 ft 497 kts 75°
2025-12-31 20:18 54.80691 -52.20373 37866 ft 497 kts 76°
2025-12-31 20:21 54.92321 -51.70799 37850 ft 493 kts 76°
2025-12-31 20:22 55.01225 -51.32068 37902 ft 493 kts 77°
2025-12-31 20:24 55.09983 -50.93216 37857 ft 491 kts 78°
2025-12-31 20:26 55.21087 -50.43253 37932 ft 489 kts 78°
2025-12-31 20:28 55.29458 -50.04502 37985 ft 486 kts 78°
2025-12-31 20:30 55.39994 -49.54710 37948 ft 482 kts 79°
2025-12-31 20:32 55.47999 -49.15989 37947 ft 483 kts 79°
2025-12-31 20:34 55.58061 -48.66233 37939 ft 479 kts 79°
2025-12-31 20:36 55.65731 -48.27487 37898 ft 475 kts 81°
2025-12-31 20:38 55.75317 -47.77909 38001 ft 473 kts 81°
2025-12-31 20:40 55.82615 -47.39268 37997 ft 473 kts 80°
2025-12-31 20:42 55.91836 -46.89320 38002 ft 474 kts 80°
2025-12-31 20:44 55.98907 -46.50259 38062 ft 476 kts 79°
2025-12-31 20:46 56.09424 -46.00122 40169 ft 479 kts 75°
2025-12-31 20:49 56.22598 -45.53548 42634 ft 449 kts 64°
2025-12-31 20:51 56.36522 -45.19346 44149 ft 412 kts 54°
2025-12-31 20:53 56.52891 -44.88647 43575 ft 430 kts 47°
2025-12-31 20:55 56.71119 -44.61926 44019 ft 415 kts 38°
2025-12-31 20:57 56.91083 -44.39568 43712 ft 423 kts 30°
2025-12-31 20:58 57.09439 -44.23898 43768 ft 417 kts 25°